Total_Precipitation_Accumulation
0.87 1.09 1.26 1.42 1.68 1.87 1.94 2.05 2.22 2.43 2.64 2.95 3.29 3.47 3.57 3.79 3.93 4.02 4.12 4.08 4.05 4.18 4.24 4.12 4.01 3.86 3.74 3.55 3.42 3.24 3.07 2.83 2.74 2.61 2.28 1.86 1.61 1.59 1.51 1.54 1.65 1.64 1.57
0.96 1.26 1.55 1.93 2.11 2.14 2.16 2.23 2.35 2.62 2.91 3.30 3.77 4.19 4.36 4.49 4.51 4.54 4.74 4.85 4.89 5.06 5.17 5.09 4.88 4.64 4.30 3.85 3.52 3.32 3.16 2.90 2.86 2.81 2.72 2.18 1.79 1.51 1.24 1.30 1.36 1.41 1.49
1.27 1.50 1.78 1.96 2.09 2.15 2.23 2.33 2.65 3.07 3.51 4.00 4.52 4.95 5.20 5.24 5.17 4.90 5.02 5.17 5.14 5.23 5.43 5.41 5.14 4.74 4.18 3.68 3.50 3.40 3.26 3.07 2.97 2.83 2.88 2.48 2.08 1.75 1.35 1.15 1.09 1.16 1.19
1.28 1.51 1.73 1.96 2.04 2.14 2.32 2.44 2.77 3.31 3.79 4.25 4.91 5.43 5.69 5.88 5.99 5.76 5.47 5.33 5.18 5.06 4.96 4.81 4.40 3.93 3.59 3.33 3.24 3.21 3.02 2.98 2.89 2.81 2.53 2.30 2.07 1.88 1.57 1.27 1.10 1.09 1.10
1.13 1.36 1.50 1.74 2.00 2.08 2.11 2.20 2.63 3.22 3.94 4.65 5.20 5.67 6.04 6.20 6.15 5.81 5.45 5.04 4.70 4.28 3.92 3.56 3.26 3.12 2.91 2.70 2.61 2.59 2.53 2.40 2.35 2.36 2.31 2.24 2.02 1.75 1.57 1.40 1.23 1.21 1.13
1.02 1.08 1.18 1.38 1.68 1.74 1.88 2.11 2.48 3.16 3.89 4.49 5.04 5.42 5.76 5.80 5.54 5.11 4.66 4.34 3.97 3.52 3.06 2.81 2.56 2.41 2.23 2.02 1.90 1.88 1.91 1.98 2.04 2.10 2.08 2.04 2.02 1.88 1.79 1.68 1.49 1.37 1.32
0.92 1.00 1.04 1.15 1.35 1.51 1.78 2.16 2.56 3.07 3.51 4.00 4.45 4.71 4.90 4.95 4.88 4.63 4.29 4.01 3.59 3.15 2.69 2.28 2.07 1.83 1.66 1.58 1.52 1.47 1.47 1.55 1.65 1.79 1.84 1.82 1.80 1.77 1.79 1.83 1.70 1.52 1.38
1.00 1.15 1.25 1.33 1.43 1.54 1.67 2.01 2.39 2.76 2.97 3.20 3.53 3.75 3.88 3.94 3.85 3.66 3.40 3.12 2.84 2.57 2.22 1.80 1.48 1.28 1.14 1.08 1.10 1.15 1.21 1.23 1.28 1.37 1.50 1.53 1.52 1.57 1.64 1.72 1.78 1.77 1.56
1.00 1.17 1.31 1.41 1.49 1.52 1.64 1.72 1.91 2.11 2.35 2.55 2.68 2.77 2.80 2.73 2.66 2.52 2.32 2.13 1.95 1.75 1.54 1.31 1.13 1.01 0.95 0.89 0.86 0.87 0.89 0.95 1.01 1.08 1.18 1.29 1.35 1.37 1.45 1.55 1.65 1.70 1.66
1.04 1.14 1.20 1.27 1.29 1.25 1.32 1.40 1.53 1.63 1.76 1.87 1.89 1.81 1.81 1.82 1.70 1.59 1.51 1.38 1.23 1.11 1.05 0.95 0.89 0.83 0.75 0.73 0.74 0.72 0.70 0.79 0.83 0.84 0.92 1.03 1.14 1.22 1.30 1.41 1.48 1.50 1.48
1.02 1.03 1.03 1.05 1.06 0.99 1.00 1.07 1.15 1.29 1.36 1.39 1.41 1.32 1.25 1.17 1.09 1.02 1.02 0.96 0.87 0.83 0.80 0.76 0.73 0.71 0.68 0.65 0.62 0.63 0.61 0.65 0.76 0.84 0.89 0.93 0.99 1.05 1.09 1.14 1.20 1.30 1.37
1.02 0.94 0.89 0.86 0.84 0.81 0.80 0.84 0.91 0.97 0.98 0.97 0.95 0.93 0.88 0.84 0.81 0.78 0.79 0.84 0.80 0.74 0.72 0.70 0.69 0.69 0.69 0.68 0.65 0.61 0.59 0.61 0.67 0.72 0.76 0.77 0.76 0.83 0.91 0.96 0.99 1.06 1.14
1.02 0.98 0.94 0.85 0.83 0.86 0.83 0.76 0.78 0.81 0.82 0.81 0.81 0.77 0.77 0.76 0.75 0.76 0.77 0.79 0.76 0.71 0.66 0.64 0.64 0.66 0.66 0.62 0.61 0.59 0.57 0.56 0.58 0.60 0.60 0.63 0.64 0.67 0.70 0.73 0.78 0.84 0.89
0.94 0.98 1.03 1.00 0.91 0.86 0.85 0.80 0.76 0.76 0.79 0.78 0.75 0.67 0.64 0.66 0.68 0.67 0.67 0.66 0.64 0.66 0.67 0.65 0.61 0.57 0.52 0.46 0.43 0.42 0.42 0.39 0.41 0.41 0.43 0.49 0.55 0.57 0.58 0.56 0.58 0.63 0.73
1.06 1.03 1.02 1.02 0.95 0.88 0.83 0.79 0.78 0.77 0.81 0.84 0.83 0.75 0.67 0.64 0.64 0.64 0.64 0.62 0.56 0.53 0.52 0.49 0.44 0.36 0.30 0.27 0.25 0.26 0.28 0.29 0.29 0.30 0.29 0.32 0.40 0.48 0.49 0.47 0.50 0.57 0.65
1.31 1.26 1.19 1.16 1.14 1.06 0.95 0.87 0.87 0.88 0.89 0.94 1.00 1.01 0.94 0.85 0.79 0.72 0.65 0.61 0.57 0.49 0.40 0.34 0.32 0.27 0.21 0.21 0.19 0.20 0.26 0.29 0.29 0.30 0.30 0.30 0.32 0.36 0.37 0.42 0.53 0.63 0.64
1.55 1.50 1.45 1.38 1.32 1.24 1.17 1.11 1.03 0.98 0.96 0.97 1.00 1.00 0.94 0.84 0.75 0.65 0.57 0.55 0.53 0.48 0.43 0.35 0.29 0.28 0.24 0.20 0.17 0.17 0.24 0.30 0.31 0.32 0.33 0.29 0.28 0.32 0.33 0.38 0.45 0.50 0.52
1.49 1.49 1.49 1.47 1.45 1.33 1.24 1.18 1.11 1.07 1.01 1.00 0.96 0.91 0.81 0.70 0.59 0.54 0.52 0.51 0.50 0.50 0.47 0.41 0.36 0.32 0.23 0.17 0.14 0.15 0.23 0.31 0.31 0.32 0.33 0.34 0.34 0.34 0.36 0.36 0.39 0.45 0.51
1.56 1.54 1.48 1.40 1.36 1.28 1.22 1.16 1.14 1.08 1.00 0.95 0.84 0.72 0.63 0.59 0.55 0.52 0.52 0.51 0.48 0.46 0.44 0.40 0.38 0.38 0.29 0.15 0.12 0.14 0.26 0.36 0.33 0.27 0.26 0.29 0.32 0.34 0.34 0.38 0.47 0.52 0.56
1.33 1.26 1.17 1.11 1.11 1.13 1.09 1.05 1.03 0.97 0.88 0.73 0.59 0.52 0.50 0.51 0.52 0.50 0.47 0.45 0.46 0.45 0.39 0.34 0.34 0.34 0.30 0.19 0.15 0.17 0.27 0.36 0.33 0.30 0.28 0.26 0.27 0.28 0.28 0.36 0.49 0.59 0.59
1.00 0.93 0.89 0.96 1.02 1.02 0.95 0.91 0.85 0.79 0.67 0.57 0.51 0.46 0.44 0.41 0.43 0.45 0.44 0.44 0.43 0.46 0.45 0.43 0.39 0.33 0.26 0.17 0.13 0.14 0.21 0.29 0.32 0.34 0.36 0.33 0.24 0.21 0.24 0.31 0.41 0.49 0.48
0.71 0.69 0.72 0.79 0.81 0.75 0.75 0.81 0.75 0.63 0.52 0.54 0.54 0.51 0.44 0.37 0.42 0.52 0.51 0.47 0.51 0.55 0.54 0.50 0.45 0.33 0.24 0.15 0.11 0.11 0.13 0.17 0.28 0.37 0.36 0.32 0.23 0.22 0.25 0.31 0.39 0.42 0.49
0.52 0.57 0.58 0.62 0.66 0.63 0.66 0.72 0.71 0.59 0.56 0.61 0.60 0.49 0.40 0.44 0.47 0.52 0.50 0.43 0.43 0.41 0.39 0.37 0.36 0.31 0.25 0.17 0.09 0.09 0.11 0.14 0.20 0.27 0.25 0.23 0.25 0.28 0.40 0.41 0.41 0.49 0.66
0.42 0.48 0.49 0.49 0.53 0.52 0.56 0.61 0.56 0.55 0.66 0.73 0.62 0.47 0.41 0.41 0.42 0.41 0.36 0.31 0.33 0.32 0.30 0.28 0.26 0.26 0.26 0.19 0.15 0.14 0.15 0.17 0.22 0.26 0.27 0.32 0.38 0.42 0.51 0.57 0.63 0.67 0.70
0.41 0.44 0.47 0.45 0.40 0.41 0.46 0.44 0.48 0.58 0.77 0.74 0.60 0.49 0.41 0.38 0.36 0.30 0.22 0.18 0.16 0.14 0.18 0.20 0.18 0.20 0.20 0.15 0.16 0.16 0.15 0.16 0.18 0.22 0.35 0.53 0.58 0.63 0.67 0.71 0.75 0.77 0.71
0.36 0.42 0.42 0.38 0.37 0.38 0.39 0.38 0.43 0.50 0.65 0.65 0.49 0.41 0.37 0.32 0.26 0.23 0.21 0.13 0.08 0.07 0.06 0.07 0.07 0.08 0.11 0.11 0.12 0.14 0.15 0.16 0.20 0.27 0.47 0.56 0.59 0.62 0.62 0.62 0.66 0.71 0.69